DG0CCO-13 Weather Reports


time (UTC)temp
C
wind
direction
speed
KPH
gust
KPH
rain 1hr
cm
rain 24hr
cm
rain mn
cm
humidity
%
barometer
mb
20260506145617 -17 258 0.0 1.6 0.00 1.24 1.17
20260506143516 -17 265 1.6 3.2 0.00 1.24 1.17
20260506142623 -17 175 1.6 4.8 0.00 1.24 1.17
20260506141518 -17 244 1.6 4.8 0.00 1.24 1.17
20260506140523 -17 280 0.0 3.2 0.00 1.24 1.17
20260506135618 -17 257 0.0 3.2 0.00 1.24 1.17
20260506134522 -17 235 0.0 1.6 0.00 1.24 1.17
20260506133627 -17 220 0.0 3.2 0.00 1.24 1.17
20260506132520 -17 228 0.0 1.6 0.00 1.24 1.17
20260506131530 -17 192 1.6 1.6 0.00 1.24 1.17
20260506130625 -17 216 1.6 4.8 0.00 1.24 1.17
20260506125631 -17 226 1.6 3.2 0.00 1.24 1.17
20260506124620 -17 184 0.0 3.2 0.00 1.24 1.17
20260506123516 -17 208 0.0 1.6 0.00 1.24 1.17
20260506121626 -17 285 1.6 3.2 0.00 1.24 1.17
20260506120519 -17 234 0.0 3.2 0.00 1.24 1.17
20260506115525 -17 266 0.0 1.6 0.05 1.24 1.17
20260506111526 -17 263 1.6 1.6 0.05 1.24 1.17
20260506105525 -17 242 1.6 4.8 0.00 1.17 1.12
20260506104619 -17 232 0.0 6.4 0.00 1.17 1.12
20260506102615 -17 216 0.0 3.2 0.05 1.17 1.12
20260506100523 -17 280 0.0 3.2 0.05 1.17 1.12
20260506094522 -17 293 0.0 1.6 0.05 1.17 1.12
20260506093517 -17 252 0.0 1.6 0.00 1.12 1.04
20260506092522 -17 282 1.6 4.8 0.00 1.12 1.04
20260506091526 -17 270 1.6 1.6 0.05 1.12 1.04
20260506085626 -17 240 1.6 4.8 0.05 1.12 1.04
20260506084518 -17 254 0.0 1.6 0.05 1.12 1.04
20260506083525 -17 203 0.0 3.2 0.05 1.12 1.04
20260506080526 -17 277 1.6 3.2 0.05 1.04 0.97
20260506072524 -17 244 0.0 3.2 0.18 0.97 0.91
20260506071517 -17 219 1.6 4.8 0.18 0.97 0.91
20260506061517 -17 233 0.0 3.2 0.13 0.79 0.71
20260506060622 -17 227 0.0 3.2 0.13 0.79 0.71
20260506043521 -17 246 0.0 3.2 0.18 0.58 0.51
20260506042525 -17 291 0.0 3.2 0.18 0.51 0.46
20260506041620 -17 274 0.0 1.6 0.25 0.51 0.46
20260506040626 -17 302 0.0 1.6 0.25 0.46 0.38
20260506035520 -17 233 0.0 6.4 0.25 0.46 0.38
20260506034625 -17 247 1.6 3.2 0.25 0.46 0.38
20260506033620 -17 268 0.0 1.6 0.25 0.38 0.30
20260506032646 -17 341 1.6 3.2 0.18 0.30 0.25
20260506031621 -17 250 1.6 8.0 0.18 0.25 0.18
20260506025518 -17 245 1.6 3.2 0.13 0.18 0.13
20260506024622 -17 224 1.6 3.2 0.13 0.18 0.13
20260506022522 -17 263 1.6 3.2 0.05 0.18 0.05
20260506021516 -17 224 1.6 1.6 0.00 0.13 0.00
20260506020522 -17 236 1.6 3.2 0.00 0.13 0.00
20260506015516 -17 291 1.6 3.2 0.00 0.13 0.00
20260506014522 -17 225 1.6 4.8 0.00 0.13 0.00
20260506013516 -17 245 1.6 4.8 0.00 0.13 0.00
20260506012621 -17 274 1.6 6.4 0.00 0.13 0.00
20260506011526 -17 241 1.6 4.8 0.00 0.13 0.00
20260506010621 -17 207 1.6 3.2 0.00 0.13 0.00
20260506004518 -17 239 1.6 3.2 0.00 0.13 0.00
20260506003524 -17 279 1.6 3.2 0.00 0.13 0.00
20260506002519 -17 235 1.6 3.2 0.00 0.13 0.00
20260506001624 -17 218 1.6 4.8 0.00 0.18 0.00
20260506000517 -17 275 1.6 3.2 0.00 0.25 0.00
20260505234618 -17 266 1.6 1.6 0.00 0.38 0.00
20260505233624 -17 243 1.6 4.8 0.00 0.38 0.00
20260505232517 -17 345 1.6 4.8 0.00 0.38 0.00
20260505231625 -17 206 1.6 1.6 0.00 0.46 0.00
20260505230517 -17 301 3.2 4.8 0.00 0.51 0.00
20260505225521 -17 216 1.6 4.8 0.00 0.51 0.00
20260505224517 -17 237 1.6 4.8 0.00 0.51 0.00
20260505223522 -17 285 1.6 3.2 0.00 0.51 0.00
20260505221521 -17 317 1.6 3.2 0.00 0.51 0.00
20260505215522 -17 228 1.6 4.8 0.00 0.51 0.51
20260505204529 -17 252 1.6 4.8 0.00 0.51 0.51
20260505203519 -17 274 1.6 4.8 0.00 0.51 0.51
20260505201520 -17 229 1.6 6.4 0.00 0.51 0.51
20260505200526 -17 224 1.6 4.8 0.05 0.51 0.51
20260505193520 -17 287 1.6 4.8 0.05 0.51 0.51
20260505192524 -17 251 1.6 1.6 0.05 0.51 0.51
20260505185519 -17 228 1.6 6.4 0.00 0.46 0.46
20260505181517 -17 272 1.6 3.2 0.00 0.46 0.46
20260505172520 -17 0 1.6 3.2 0.00 0.46 0.46
20260505171525 -17 257 1.6 6.4 0.00 0.46 0.46
20260505170619 -17 265 1.6 3.2 0.00 0.46 0.46
20260505165524 -17 279 1.6 1.6 0.00 0.46 0.46
20260505164518 -17 211 1.6 6.4 0.00 0.46 0.46
20260505161621 -17 247 1.6 4.8 0.00 0.46 0.46
20260505160616 -17 303 3.2 8.0 0.00 0.46 0.46
20260505152515 -17 272 3.2 4.8 0.00 0.46 0.46
20260505151620 -17 232 1.6 6.4 0.00 0.46 0.46
20260505150615 -17 243 1.6 9.7 0.00 0.46 0.46